Location: Caltech
(34.1382°N, 118.1253°W)
Time: 19:19:44
(UTC-07:00)

A-11 Canister half - All Passes

Search period start: 30 April 2016 00:00
Search period end: 10 May 2016 00:00
Orbit: 1515 x 1685 km, 47.2° (Epoch: 29 April)

Date Brightness Start Highest point End Pass type
(mag) Time Alt. Az. Time Alt. Az. Time Alt. Az.
30 Apr - 08:38:32 10° SSE 08:44:29 19° SE 08:50:31 10° E daylight
30 Apr - 10:38:57 10° SW 10:48:12 76° SE 10:57:45 10° NE daylight
30 Apr - 12:44:45 10° W 12:53:43 47° NNW 13:03:02 10° NE daylight
30 Apr - 14:51:57 10° WNW 15:00:44 38° N 15:09:50 10° ENE daylight
30 Apr - 16:57:35 10° NW 17:07:20 65° NNE 17:17:22 10° ESE daylight
30 Apr - 19:02:53 10° WNW 19:12:13 47° SW 19:21:43 10° SSE daylight
01 May - 08:16:13 10° SSE 08:21:41 17° ESE 08:27:12 10° E daylight
01 May - 10:16:09 10° SW 10:25:20 72° SE 10:34:48 10° ENE daylight
01 May - 12:21:44 10° W 12:30:44 49° NNW 12:40:03 10° NE daylight
01 May - 14:28:57 10° WNW 14:37:42 38° N 14:46:44 10° ENE daylight
01 May - 16:34:40 10° NW 16:44:21 62° NNE 16:54:19 10° ESE daylight
01 May - 18:39:55 10° WNW 18:49:19 51° SW 18:58:57 10° SSE daylight
02 May - 07:54:01 10° SSE 07:58:54 16° ESE 08:03:48 10° E daylight
02 May - 09:53:19 10° SW 10:02:27 68° SE 10:11:51 10° ENE daylight
02 May - 11:58:43 10° W 12:07:45 50° NNW 12:17:05 10° NE daylight
02 May - 14:05:58 10° WNW 14:14:40 38° N 14:23:38 10° ENE daylight
02 May - 16:11:46 10° NW 16:21:23 60° NNE 16:31:17 10° ESE daylight
02 May - 18:16:56 10° WNW 18:26:26 54° SW 18:36:10 10° SSE daylight
02 May - 20:27:36 10° WSW 20:30:00 11° WSW 20:32:27 10° SW visible
03 May - 07:31:56 10° SSE 07:36:06 14° ESE 07:40:17 10° E daylight
03 May - 09:30:31 10° SW 09:39:36 63° SE 09:48:53 10° ENE daylight
03 May - 11:35:44 10° W 11:44:46 52° NNW 11:54:07 10° NE daylight
03 May - 13:42:58 10° WNW 13:51:37 37° N 14:00:33 10° ENE daylight
03 May - 15:48:51 10° NW 15:58:23 57° NNE 16:08:13 10° ESE daylight
03 May - 17:53:58 10° WNW 18:03:32 57° SW 18:13:20 10° SSE daylight
03 May - 20:03:28 10° W 20:07:11 13° WSW 20:10:55 10° SW visible
04 May - 07:10:03 10° SE 07:13:18 12° ESE 07:16:33 10° E daylight
04 May - 09:07:44 10° SSW 09:16:44 59° SE 09:25:56 10° ENE daylight
04 May - 11:12:44 10° W 11:21:48 54° NNW 11:31:10 10° NE daylight
04 May - 13:19:58 10° WNW 13:28:35 37° N 13:37:28 10° ENE daylight
04 May - 15:25:57 10° NW 15:35:24 55° NNE 15:45:10 10° ESE daylight
04 May - 17:31:02 10° WNW 17:40:38 61° SW 17:50:31 10° SSE daylight
04 May - 19:39:45 10° W 19:44:21 14° WSW 19:48:59 10° SSW daylight
05 May - 06:48:43 10° SE 06:50:30 11° ESE 06:52:18 10° ESE daylight
05 May - 08:44:58 10° SSW 08:53:53 56° SE 09:02:58 10° ENE daylight
05 May - 10:49:45 10° WSW 10:58:50 56° NNW 11:08:13 10° NE daylight
05 May - 12:56:57 10° WNW 13:05:33 37° N 13:14:24 10° ENE daylight
05 May - 15:03:02 10° NW 15:12:24 53° NNE 15:22:05 10° E daylight
05 May - 17:08:05 10° WNW 17:17:44 65° SW 17:27:40 10° SE daylight
05 May - 19:16:13 10° W 19:21:30 16° WSW 19:26:52 10° SSW daylight
06 May - 08:22:13 10° SSW 08:31:02 52° SE 08:40:00 10° ENE daylight
06 May - 10:26:46 10° WSW 10:35:53 59° NNW 10:45:16 10° NE daylight
06 May - 12:33:57 10° WNW 12:42:31 37° N 12:51:21 10° ENE daylight
06 May - 14:40:07 10° NW 14:49:25 51° NNE 14:59:01 10° E daylight
06 May - 16:45:10 10° WNW 16:54:50 69° SW 17:04:48 10° SE daylight
06 May - 18:52:49 10° W 18:58:40 17° SW 19:04:36 10° SSW daylight
07 May - 07:59:29 10° SSW 08:08:11 48° SE 08:17:00 10° ENE daylight
07 May - 10:03:48 10° WSW 10:12:56 61° NNW 10:22:20 10° NE daylight
07 May - 12:10:56 10° WNW 12:19:28 37° N 12:28:17 10° ENE daylight
07 May - 14:17:12 10° NW 14:26:25 49° NNE 14:35:56 10° E daylight
07 May - 16:22:14 10° WNW 16:31:55 73° SW 16:41:55 10° SE daylight
07 May - 18:29:30 10° W 18:35:50 19° SW 18:42:16 10° SSW daylight
08 May - 07:36:46 10° SSW 07:45:21 45° SE 07:54:01 10° ENE daylight
08 May - 09:40:50 10° WSW 09:49:59 64° NNW 09:59:23 10° NE daylight
08 May - 11:47:55 10° WNW 11:56:27 38° N 12:05:15 10° ENE daylight
08 May - 13:54:17 10° NW 14:03:25 47° NNE 14:12:51 10° E daylight
08 May - 15:59:19 10° NW 16:09:00 77° SW 16:19:01 10° SE daylight
08 May - 18:06:15 10° W 18:12:59 21° SW 18:19:52 10° S daylight
09 May - 07:14:04 10° SSW 07:22:31 42° SE 07:31:02 10° ENE daylight
09 May - 09:17:52 10° WSW 09:27:03 67° NNW 09:36:28 10° NE daylight
09 May - 11:24:54 10° WNW 11:33:26 38° N 11:42:13 10° ENE daylight
09 May - 13:31:22 10° NW 13:40:25 46° NNE 13:49:45 10° E daylight
09 May - 15:36:24 10° NW 15:46:06 81° SW 15:56:07 10° SE daylight
09 May - 17:43:03 10° W 17:50:08 23° SW 17:57:24 10° S daylight
